Time,TemperatureF,DewpointF,PressureIn,WindDirection,WindDirectionDegrees,WindSpeedMPH,WindSpeedGustMPH,Humidity,HourlyPrecipIn,Conditions,Clouds,dailyrainin,SoftwareType,DateUTC
2013-01-28 00:00:00,21.5,14.4,30.05,NNW,340,0.0,0.0,74,0.00,,---,0.04,VWS V14.00,2013-01-28 08:00:00,
2013-01-28 00:09:00,18.2,11.8,30.05,NNW,340,0.0,0.0,76,0.00,,---,0.00,VWS V14.00,2013-01-28 08:09:00,
2013-01-28 00:14:00,17.7,11.9,30.05,NNW,340,0.0,0.0,78,0.00,,---,0.00,VWS V14.00,2013-01-28 08:14:00,
2013-01-28 00:19:00,18.0,12.7,30.05,NNW,340,0.0,0.0,80,0.00,,---,0.00,VWS V14.00,2013-01-28 08:19:00,
2013-01-28 00:24:00,18.7,13.4,30.05,NNW,340,0.0,0.0,80,0.00,,---,0.00,VWS V14.00,2013-01-28 08:24:00,
2013-01-28 00:29:00,18.7,13.4,30.05,NNW,340,0.0,0.0,80,0.00,,---,0.00,VWS V14.00,2013-01-28 08:29:00,
2013-01-28 00:34:00,18.7,13.7,30.05,NNW,340,0.0,0.0,80,0.00,,---,0.00,VWS V14.00,2013-01-28 08:34:00,
2013-01-28 00:39:00,19.3,14.3,30.05,NNW,340,0.0,0.0,80,0.00,,---,0.00,VWS V14.00,2013-01-28 08:39:00,
2013-01-28 00:44:00,19.4,14.4,30.05,NNW,340,0.0,0.0,80,0.00,,---,0.00,VWS V14.00,2013-01-28 08:44:00,
2013-01-28 00:49:00,19.3,14.3,30.05,NNW,340,0.0,0.0,80,0.00,,---,0.00,VWS V14.00,2013-01-28 08:49:00,
2013-01-28 00:54:00,19.4,14.4,30.05,NNW,340,0.0,0.0,80,0.00,,---,0.00,VWS V14.00,2013-01-28 08:54:00,
2013-01-28 00:59:00,19.4,14.1,30.05,NNW,340,0.0,0.0,80,0.00,,---,0.00,VWS V14.00,2013-01-28 08:59:00,
2013-01-28 01:04:00,18.6,13.0,30.05,NNW,340,0.0,0.0,78,0.00,,---,0.00,VWS V14.00,2013-01-28 09:04:00,
2013-01-28 01:09:00,18.2,12.6,30.05,NNW,340,0.0,0.0,78,0.00,,---,0.00,VWS V14.00,2013-01-28 09:09:00,
2013-01-28 01:14:00,18.1,12.6,30.05,NNW,340,0.0,0.0,78,0.00,,---,0.00,VWS V14.00,2013-01-28 09:14:00,
2013-01-28 01:19:00,18.0,12.5,30.04,NNW,340,0.0,0.0,78,0.00,,---,0.00,VWS V14.00,2013-01-28 09:19:00,
2013-01-28 01:24:00,18.2,12.6,30.04,NNW,340,0.0,0.0,78,0.00,,---,0.00,VWS V14.00,2013-01-28 09:24:00,
2013-01-28 01:29:00,18.0,12.5,30.04,NNW,340,0.0,0.0,78,0.00,,---,0.00,VWS V14.00,2013-01-28 09:29:00,
2013-01-28 01:34:00,17.7,12.2,30.04,NNW,340,0.0,0.0,78,0.00,,---,0.00,VWS V14.00,2013-01-28 09:34:00,
2013-01-28 01:39:00,17.6,12.1,30.04,NNW,340,0.0,0.0,78,0.00,,---,0.00,VWS V14.00,2013-01-28 09:39:00,
2013-01-28 01:44:00,17.6,12.1,30.04,NNW,340,0.0,0.0,78,0.00,,---,0.00,VWS V14.00,2013-01-28 09:44:00,
2013-01-28 01:54:00,18.9,13.0,30.04,NNW,340,0.0,0.0,78,0.00,,---,0.00,VWS V14.00,2013-01-28 09:54:00,
2013-01-28 01:59:00,18.5,12.6,30.04,NNW,340,0.0,0.0,78,0.00,,---,0.00,VWS V14.00,2013-01-28 09:59:00,
2013-01-28 02:04:00,18.3,12.5,30.04,NNW,340,0.0,0.0,78,0.00,,---,0.00,VWS V14.00,2013-01-28 10:04:00,
2013-01-28 02:09:00,18.5,12.6,30.05,NNW,340,0.0,0.0,78,0.00,,---,0.00,VWS V14.00,2013-01-28 10:09:00,
2013-01-28 02:14:00,19.0,12.8,30.04,NNW,340,0.0,0.0,76,0.00,,---,0.00,VWS V14.00,2013-01-28 10:14:00,
2013-01-28 02:19:00,19.2,12.7,30.04,NNW,340,0.0,0.0,76,0.00,,---,0.00,VWS V14.00,2013-01-28 10:19:00,
2013-01-28 02:24:00,18.9,12.1,30.04,NNW,340,0.0,0.0,74,0.00,,---,0.00,VWS V14.00,2013-01-28 10:24:00,
2013-01-28 02:29:00,18.3,11.6,30.04,NNW,340,0.0,0.0,74,0.00,,---,0.00,VWS V14.00,2013-01-28 10:29:00,
2013-01-28 02:34:00,18.1,11.7,30.04,NNW,340,0.0,0.0,76,0.00,,---,0.00,VWS V14.00,2013-01-28 10:34:00,
2013-01-28 02:39:00,18.0,11.6,30.04,NNW,340,0.0,0.0,76,0.00,,---,0.00,VWS V14.00,2013-01-28 10:39:00,
2013-01-28 02:44:00,17.2,10.8,30.04,NNW,340,0.0,0.0,76,0.00,,---,0.00,VWS V14.00,2013-01-28 10:44:00,
2013-01-28 02:49:00,16.7,10.6,30.04,NNW,340,0.0,0.0,76,0.00,,---,0.00,VWS V14.00,2013-01-28 10:49:00,
2013-01-28 02:54:00,16.5,10.4,30.04,NNW,340,0.0,0.0,76,0.00,,---,0.00,VWS V14.00,2013-01-28 10:54:00,
2013-01-28 02:59:00,16.4,10.3,30.04,NNW,340,0.0,0.0,76,0.00,,---,0.00,VWS V14.00,2013-01-28 10:59:00,
2013-01-28 03:04:00,15.7,9.6,30.04,NNW,340,0.0,0.0,76,0.00,,---,0.00,VWS V14.00,2013-01-28 11:04:00,
2013-01-28 03:09:00,15.1,9.1,30.04,NNW,340,0.0,0.0,76,0.00,,---,0.00,VWS V14.00,2013-01-28 11:09:00,
2013-01-28 03:14:00,15.1,9.1,30.04,NNW,340,0.0,0.0,76,0.00,,---,0.00,VWS V14.00,2013-01-28 11:14:00,
2013-01-28 03:19:00,15.1,9.1,30.04,NNW,340,0.0,0.0,76,0.00,,---,0.00,VWS V14.00,2013-01-28 11:19:00,
2013-01-28 03:24:00,15.1,9.1,30.04,NNW,340,0.0,0.0,76,0.00,,---,0.00,VWS V14.00,2013-01-28 11:24:00,
2013-01-28 03:29:00,15.1,9.1,30.03,NNW,340,0.0,0.0,76,0.00,,---,0.00,VWS V14.00,2013-01-28 11:29:00,
2013-01-28 03:34:00,15.1,9.1,30.03,NNW,340,0.0,0.0,76,0.00,,---,0.00,VWS V14.00,2013-01-28 11:34:00,
2013-01-28 03:39:00,15.1,9.1,30.03,NNW,340,0.0,0.0,76,0.00,,---,0.00,VWS V14.00,2013-01-28 11:39:00,
2013-01-28 03:44:00,15.1,9.1,30.03,NNW,340,0.0,0.0,76,0.00,,---,0.00,VWS V14.00,2013-01-28 11:44:00,
2013-01-28 03:49:00,15.1,9.1,30.03,NNW,340,0.0,0.0,76,0.00,,---,0.00,VWS V14.00,2013-01-28 11:49:00,
2013-01-28 03:54:00,15.1,9.1,30.03,NNW,340,0.0,0.0,76,0.00,,---,0.00,VWS V14.00,2013-01-28 11:54:00,
2013-01-28 03:59:00,15.1,9.1,30.03,NNW,340,0.0,0.0,76,0.00,,---,0.00,VWS V14.00,2013-01-28 11:59:00,
2013-01-28 04:04:00,15.1,9.1,30.03,NNW,340,0.0,0.0,76,0.00,,---,0.00,VWS V14.00,2013-01-28 12:04:00,
2013-01-28 04:09:00,15.1,9.1,30.03,NNW,340,0.0,0.0,76,0.00,,---,0.00,VWS V14.00,2013-01-28 12:09:00,
2013-01-28 04:14:00,15.1,9.1,30.03,NNW,340,0.0,0.0,76,0.00,,---,0.00,VWS V14.00,2013-01-28 12:14:00,
2013-01-28 04:19:00,15.1,9.1,30.03,NNW,340,0.0,0.0,76,0.00,,---,0.00,VWS V14.00,2013-01-28 12:19:00,
2013-01-28 04:24:00,15.1,9.1,30.03,NNW,340,0.0,0.0,76,0.00,,---,0.00,VWS V14.00,2013-01-28 12:24:00,
2013-01-28 04:29:00,15.1,9.1,30.03,NNW,340,0.0,0.0,76,0.00,,---,0.00,VWS V14.00,2013-01-28 12:29:00,
2013-01-28 04:34:00,15.1,9.1,30.03,NNW,340,0.0,0.0,76,0.00,,---,0.00,VWS V14.00,2013-01-28 12:34:00,
2013-01-28 04:39:00,15.1,9.1,30.03,NNW,340,0.0,0.0,76,0.00,,---,0.00,VWS V14.00,2013-01-28 12:39:00,
2013-01-28 04:44:00,15.1,9.1,30.03,NNW,340,0.0,0.0,76,0.00,,---,0.00,VWS V14.00,2013-01-28 12:44:00,
2013-01-28 04:49:00,15.1,9.1,30.03,NNW,340,0.0,0.0,76,0.00,,---,0.00,VWS V14.00,2013-01-28 12:49:00,
2013-01-28 04:54:00,15.1,9.1,30.03,NNW,340,0.0,0.0,76,0.00,,---,0.00,VWS V14.00,2013-01-28 12:54:00,
2013-01-28 04:59:00,15.1,9.1,30.03,NNW,340,0.0,0.0,76,0.00,,---,0.00,VWS V14.00,2013-01-28 12:59:00,
2013-01-28 05:04:00,15.1,9.1,30.03,NNW,340,0.0,0.0,76,0.00,,---,0.00,VWS V14.00,2013-01-28 13:04:00,
2013-01-28 05:09:00,15.1,9.1,30.03,NNW,340,0.0,0.0,76,0.00,,---,0.00,VWS V14.00,2013-01-28 13:09:00,
2013-01-28 05:14:00,15.1,9.1,30.03,NNW,340,0.0,0.0,76,0.00,,---,0.00,VWS V14.00,2013-01-28 13:14:00,
2013-01-28 05:19:00,15.1,9.1,30.03,NNW,340,0.0,0.0,76,0.00,,---,0.00,VWS V14.00,2013-01-28 13:19:00,
2013-01-28 05:24:00,15.1,9.1,30.02,NNW,340,0.0,0.0,76,0.00,,---,0.00,VWS V14.00,2013-01-28 13:24:00,
2013-01-28 05:29:00,15.1,9.1,30.02,NNW,340,0.0,0.0,76,0.00,,---,0.00,VWS V14.00,2013-01-28 13:29:00,
2013-01-28 05:34:00,15.1,9.1,30.02,NNW,340,0.0,0.0,76,0.00,,---,0.00,VWS V14.00,2013-01-28 13:34:00,
2013-01-28 05:39:00,15.1,9.1,30.03,NNW,340,0.0,0.0,76,0.00,,---,0.00,VWS V14.00,2013-01-28 13:39:00,
2013-01-28 05:44:00,15.1,9.1,30.03,NNW,340,0.0,0.0,76,0.00,,---,0.00,VWS V14.00,2013-01-28 13:44:00,
2013-01-28 05:49:00,15.1,9.1,30.03,NNW,340,0.0,0.0,76,0.00,,---,0.00,VWS V14.00,2013-01-28 13:49:00,
2013-01-28 05:54:00,15.1,9.1,30.03,NNW,340,0.0,0.0,76,0.00,,---,0.00,VWS V14.00,2013-01-28 13:54:00,
2013-01-28 05:59:00,15.1,9.1,30.03,NNW,340,0.0,0.0,76,0.00,,---,0.00,VWS V14.00,2013-01-28 13:59:00,
2013-01-28 06:04:00,15.1,9.1,30.03,NNW,340,0.0,0.0,76,0.00,,---,0.00,VWS V14.00,2013-01-28 14:04:00,
2013-01-28 16:49:00,32.4,18.7,30.11,NNW,331,3.0,5.0,56,0.00,,---,0.00,VWS V14.00,2013-01-29 00:49:00,
2013-01-28 16:54:00,32.3,19.0,30.11,NNW,331,4.0,7.0,58,0.00,,---,0.00,VWS V14.00,2013-01-29 00:54:00,
2013-01-28 16:59:00,32.0,19.1,30.12,NNW,331,2.0,6.0,58,0.00,,---,0.00,VWS V14.00,2013-01-29 00:59:00,
2013-01-28 17:04:00,31.7,19.2,30.12,NNW,331,0.0,4.0,60,0.00,,---,0.00,VWS V14.00,2013-01-29 01:04:00,
2013-01-28 17:09:00,31.5,19.0,30.12,NNW,331,0.0,0.0,60,0.00,,---,0.00,VWS V14.00,2013-01-29 01:09:00,
2013-01-28 17:14:00,31.4,18.9,30.12,NNW,331,0.0,0.0,60,0.00,,---,0.00,VWS V14.00,2013-01-29 01:14:00,
2013-01-28 17:19:00,31.2,19.1,30.12,NNW,331,0.0,0.0,60,0.00,,---,0.00,VWS V14.00,2013-01-29 01:19:00,
2013-01-28 17:24:00,30.9,19.2,30.12,NNW,331,0.0,0.0,62,0.00,,---,0.00,VWS V14.00,2013-01-29 01:24:00,
2013-01-28 17:29:00,30.6,19.3,30.12,NNW,331,0.0,0.0,62,0.00,,---,0.00,VWS V14.00,2013-01-29 01:29:00,
2013-01-28 17:34:00,30.5,19.2,30.12,NNW,331,0.0,0.0,62,0.00,,---,0.00,VWS V14.00,2013-01-29 01:34:00,
2013-01-28 17:39:00,30.5,18.9,30.12,NNW,331,0.0,0.0,62,0.00,,---,0.00,VWS V14.00,2013-01-29 01:39:00,
2013-01-28 17:44:00,30.4,18.8,30.12,NNW,331,0.0,0.0,62,0.00,,---,0.00,VWS V14.00,2013-01-29 01:44:00,
2013-01-28 17:49:00,30.4,18.8,30.12,NNW,331,0.0,0.0,62,0.00,,---,0.00,VWS V14.00,2013-01-29 01:49:00,
2013-01-28 17:54:00,30.5,18.9,30.12,NNW,331,0.0,0.0,62,0.00,,---,0.00,VWS V14.00,2013-01-29 01:54:00,
2013-01-28 17:59:00,30.5,19.2,30.12,NNW,331,0.0,0.0,62,0.00,,---,0.00,VWS V14.00,2013-01-29 01:59:00,
2013-01-28 18:04:00,30.3,19.0,30.12,NNW,331,0.0,0.0,62,0.00,,---,0.00,VWS V14.00,2013-01-29 02:04:00,
2013-01-28 18:09:00,30.2,18.6,30.12,NNW,331,0.0,0.0,62,0.00,,---,0.00,VWS V14.00,2013-01-29 02:09:00,
2013-01-28 18:14:00,30.3,18.7,30.13,NNW,331,0.0,0.0,62,0.00,,---,0.00,VWS V14.00,2013-01-29 02:14:00,
2013-01-28 18:19:00,30.5,18.5,30.13,NNW,331,0.0,0.0,60,0.00,,---,0.00,VWS V14.00,2013-01-29 02:19:00,
2013-01-28 18:24:00,30.7,18.7,30.13,NNW,331,0.0,0.0,60,0.00,,---,0.00,VWS V14.00,2013-01-29 02:24:00,
2013-01-28 18:29:00,30.7,19.0,30.13,NNW,331,0.0,0.0,62,0.00,,---,0.00,VWS V14.00,2013-01-29 02:29:00,
2013-01-28 18:34:00,30.7,19.0,30.13,NNW,331,0.0,0.0,62,0.00,,---,0.00,VWS V14.00,2013-01-29 02:34:00,
2013-01-28 18:39:00,30.6,18.6,30.13,NNW,331,0.0,0.0,60,0.00,,---,0.00,VWS V14.00,2013-01-29 02:39:00,
2013-01-28 18:44:00,30.7,19.0,30.13,NNW,331,0.0,0.0,62,0.00,,---,0.00,VWS V14.00,2013-01-29 02:44:00,
2013-01-28 18:49:00,30.5,19.2,30.13,NNW,331,0.0,0.0,62,0.00,,---,0.00,VWS V14.00,2013-01-29 02:49:00,
2013-01-28 18:54:00,30.2,19.3,30.13,NNW,331,0.0,0.0,64,0.00,,---,0.00,VWS V14.00,2013-01-29 02:54:00,
2013-01-28 18:59:00,29.9,19.4,30.13,NNW,331,0.0,0.0,64,0.00,,---,0.00,VWS V14.00,2013-01-29 02:59:00,
2013-01-28 19:04:00,29.7,19.2,30.13,NNW,331,0.0,0.0,64,0.00,,---,0.00,VWS V14.00,2013-01-29 03:04:00,
2013-01-28 19:09:00,29.5,19.4,30.13,NNW,331,0.0,0.0,66,0.00,,---,0.00,VWS V14.00,2013-01-29 03:09:00,
2013-01-28 19:14:00,29.5,19.0,30.13,NNW,331,0.0,0.0,64,0.00,,---,0.00,VWS V14.00,2013-01-29 03:14:00,
2013-01-28 19:19:00,29.7,18.9,30.14,NNW,331,0.0,0.0,64,0.00,,---,0.00,VWS V14.00,2013-01-29 03:19:00,
2013-01-28 19:24:00,30.0,19.1,30.14,NNW,331,0.0,0.0,64,0.00,,---,0.00,VWS V14.00,2013-01-29 03:24:00,
2013-01-28 19:29:00,30.2,19.0,30.13,NNW,331,0.0,0.0,62,0.00,,---,0.00,VWS V14.00,2013-01-29 03:29:00,
2013-01-28 19:34:00,30.1,19.2,30.13,NNW,331,0.0,0.0,64,0.00,,---,0.00,VWS V14.00,2013-01-29 03:34:00,
2013-01-28 19:39:00,30.0,19.1,30.13,NNW,331,0.0,0.0,64,0.00,,---,0.00,VWS V14.00,2013-01-29 03:39:00,
2013-01-28 19:44:00,29.9,19.0,30.13,NNW,331,0.0,0.0,64,0.00,,---,0.00,VWS V14.00,2013-01-29 03:44:00,
2013-01-28 19:49:00,29.8,18.9,30.14,NNW,331,0.0,0.0,64,0.00,,---,0.00,VWS V14.00,2013-01-29 03:49:00,
2013-01-28 19:55:00,29.9,18.7,30.14,NNW,331,0.0,0.0,62,0.00,,---,0.00,VWS V14.00,2013-01-29 03:55:00,
2013-01-28 20:04:00,29.9,18.7,30.13,NNW,331,0.0,0.0,62,0.00,,---,0.00,VWS V14.00,2013-01-29 04:04:00,
2013-01-28 20:09:00,30.1,18.9,30.13,NNW,331,0.0,0.0,62,0.00,,---,0.00,VWS V14.00,2013-01-29 04:09:00,
2013-01-28 20:14:00,30.1,18.9,30.13,NNW,331,0.0,0.0,62,0.00,,---,0.00,VWS V14.00,2013-01-29 04:14:00,
2013-01-28 20:19:00,29.9,19.0,30.13,NNW,331,0.0,0.0,64,0.00,,---,0.00,VWS V14.00,2013-01-29 04:19:00,
2013-01-28 20:24:00,29.9,19.0,30.14,NNW,331,0.0,0.0,64,0.00,,---,0.00,VWS V14.00,2013-01-29 04:24:00,
2013-01-28 20:34:00,30.2,19.3,30.14,NNW,331,0.0,0.0,64,0.00,,---,0.00,VWS V14.00,2013-01-29 04:34:00,
2013-01-28 20:39:00,30.2,19.7,30.14,NNW,331,0.0,0.0,64,0.00,,---,0.00,VWS V14.00,2013-01-29 04:39:00,
2013-01-28 20:44:00,30.2,19.3,30.14,NNW,331,0.0,0.0,64,0.00,,---,0.00,VWS V14.00,2013-01-29 04:44:00,
2013-01-28 20:50:00,30.3,19.8,30.14,NNW,331,0.0,0.0,64,0.00,,---,0.00,VWS V14.00,2013-01-29 04:50:00,
2013-01-28 20:59:00,30.4,19.9,30.14,NNW,331,0.0,0.0,64,0.00,,---,0.00,VWS V14.00,2013-01-29 04:59:00,
2013-01-28 21:04:00,30.5,19.6,30.13,NNW,331,0.0,0.0,64,0.00,,---,0.00,VWS V14.00,2013-01-29 05:04:00,
2013-01-28 21:09:00,30.5,20.0,30.14,NNW,331,0.0,0.0,64,0.00,,---,0.00,VWS V14.00,2013-01-29 05:09:00,
2013-01-28 21:14:00,30.4,20.2,30.13,NNW,331,0.0,0.0,66,0.00,,---,0.00,VWS V14.00,2013-01-29 05:14:00,
2013-01-28 21:19:00,30.5,20.0,30.14,NNW,331,0.0,0.0,64,0.00,,---,0.00,VWS V14.00,2013-01-29 05:19:00,
2013-01-28 21:24:00,31.0,20.1,30.14,NNW,331,0.0,0.0,64,0.00,,---,0.00,VWS V14.00,2013-01-29 05:24:00,
2013-01-28 21:29:00,31.2,20.3,30.14,NNW,331,0.0,0.0,64,0.00,,---,0.00,VWS V14.00,2013-01-29 05:29:00,
2013-01-28 21:34:00,31.3,20.4,30.14,NNW,331,0.0,0.0,64,0.00,,---,0.00,VWS V14.00,2013-01-29 05:34:00,
2013-01-28 21:39:00,31.3,20.4,30.14,NNW,331,0.0,0.0,64,0.00,,---,0.00,VWS V14.00,2013-01-29 05:39:00,
2013-01-28 21:44:00,31.4,20.5,30.14,NNW,331,0.0,0.0,64,0.00,,---,0.00,VWS V14.00,2013-01-29 05:44:00,
2013-01-28 21:49:00,31.7,20.4,30.14,NNW,331,0.0,0.0,62,0.00,,---,0.00,VWS V14.00,2013-01-29 05:49:00,
2013-01-28 21:54:00,31.7,20.0,30.14,NNW,331,0.0,0.0,62,0.00,,---,0.00,VWS V14.00,2013-01-29 05:54:00,
2013-01-28 21:59:00,31.7,20.8,30.14,NNW,331,0.0,0.0,64,0.00,,---,0.00,VWS V14.00,2013-01-29 05:59:00,
2013-01-28 22:05:00,32.0,20.7,30.14,NNW,331,0.0,0.0,62,0.00,,---,0.00,VWS V14.00,2013-01-29 06:05:00,
2013-01-28 22:14:00,32.3,20.9,30.13,NNW,331,0.0,0.0,62,0.00,,---,0.00,VWS V14.00,2013-01-29 06:14:00,
2013-01-28 22:19:00,32.3,21.3,30.13,NNW,331,0.0,0.0,64,0.00,,---,0.00,VWS V14.00,2013-01-29 06:19:00,
2013-01-28 22:24:00,32.2,21.2,30.13,NNW,331,0.0,0.0,64,0.00,,---,0.00,VWS V14.00,2013-01-29 06:24:00,
2013-01-28 22:29:00,32.1,21.1,30.13,NNW,331,0.0,0.0,64,0.00,,---,0.00,VWS V14.00,2013-01-29 06:29:00,
2013-01-28 22:34:00,32.0,21.0,30.13,NNW,331,0.0,0.0,64,0.00,,---,0.00,VWS V14.00,2013-01-29 06:34:00,
2013-01-28 22:39:00,32.1,21.1,30.13,NNW,331,0.0,0.0,64,0.00,,---,0.00,VWS V14.00,2013-01-29 06:39:00,
2013-01-28 22:44:00,32.1,21.1,30.14,NNW,331,0.0,0.0,64,0.00,,---,0.00,VWS V14.00,2013-01-29 06:44:00,
2013-01-28 22:49:00,32.6,21.2,30.13,NNW,331,0.0,0.0,62,0.00,,---,0.00,VWS V14.00,2013-01-29 06:49:00,
2013-01-28 22:54:00,32.7,21.3,30.14,NNW,331,0.0,0.0,62,0.00,,---,0.00,VWS V14.00,2013-01-29 06:54:00,
2013-01-28 22:59:00,32.6,21.2,30.14,NNW,331,0.0,0.0,62,0.00,,---,0.00,VWS V14.00,2013-01-29 06:59:00,
2013-01-28 23:04:00,32.6,21.2,30.14,NNW,331,0.0,0.0,62,0.00,,---,0.00,VWS V14.00,2013-01-29 07:04:00,
2013-01-28 23:09:00,32.9,21.5,30.14,NNW,331,0.0,0.0,62,0.00,,---,0.00,VWS V14.00,2013-01-29 07:09:00,
2013-01-28 23:14:00,33.1,21.3,30.14,NNW,331,0.0,0.0,62,0.00,,---,0.00,VWS V14.00,2013-01-29 07:14:00,
2013-01-28 23:19:00,33.1,21.7,30.14,NNW,331,0.0,0.0,62,0.00,,---,0.00,VWS V14.00,2013-01-29 07:19:00,
2013-01-28 23:24:00,33.2,22.2,30.15,NNW,331,0.0,0.0,64,0.00,,---,0.00,VWS V14.00,2013-01-29 07:24:00,
2013-01-28 23:29:00,33.2,21.8,30.15,NNW,331,0.0,0.0,62,0.00,,---,0.00,VWS V14.00,2013-01-29 07:29:00,
2013-01-28 23:34:00,33.2,22.2,30.15,NNW,331,0.0,0.0,64,0.00,,---,0.00,VWS V14.00,2013-01-29 07:34:00,
2013-01-28 23:39:00,33.1,22.1,30.15,NNW,331,0.0,0.0,64,0.00,,---,0.00,VWS V14.00,2013-01-29 07:39:00,
2013-01-28 23:44:00,32.4,22.5,30.14,NNW,331,0.0,0.0,66,0.00,,---,0.00,VWS V14.00,2013-01-29 07:44:00,
2013-01-28 23:49:00,31.9,22.4,30.15,NNW,331,0.0,0.0,68,0.00,,---,0.00,VWS V14.00,2013-01-29 07:49:00,
2013-01-28 23:55:00,31.6,22.4,30.15,NNW,331,0.0,0.0,68,0.00,,---,0.00,VWS V14.00,2013-01-29 07:55:00,